This is the latest recevied weather packets stored in our database for station/object KC5DAQ-27. If no packets are shown the sender has not sent any weather packets the latest 1 day(s).
| Time | Temp. | Humidity | Pressure | Rain* | Wind** | Luminosity | Snow |
|---|---|---|---|---|---|---|---|
| 1778001363 | 25.56° C | 88% | 1000.9 hPa | 0 mm | 2.68 m/s, 206° | 501 W/m² | - |
| 1778001304 | 25.56° C | 88% | 1000.9 hPa | 0 mm | 2.68 m/s, 185° | 505 W/m² | - |
| 1778001242 | 25.56° C | 88% | 1001 hPa | 0 mm | 1.79 m/s, 0° | 489 W/m² | - |
| 1778001182 | 25.56° C | 88% | 1000.9 hPa | 0 mm | 1.79 m/s, 217° | 477 W/m² | - |
| 1778001123 | 25.56° C | 88% | 1001 hPa | 0 mm | 2.24 m/s, 224° | 440 W/m² | - |
| 1778001063 | 25.56° C | 88% | 1001 hPa | 0 mm | 2.68 m/s, 199° | 422 W/m² | - |
| 1778000990 | 25.56° C | 88% | 1001 hPa | 0 mm | 2.68 m/s, 245° | 410 W/m² | - |
| 1778000928 | 25.56° C | 88% | 1001 hPa | 0 mm | 2.68 m/s, 214° | 396 W/m² | - |
| 1778000867 | 25.56° C | 88% | 1001 hPa | 0 mm | 2.68 m/s, 193° | 369 W/m² | - |
| 1778000806 | 25.56° C | 88% | 1001.1 hPa | 0 mm | 2.24 m/s, 183° | 336 W/m² | - |
| 1778000744 | 25.56° C | 88% | 1001 hPa | 0 mm | 2.24 m/s, 214° | 325 W/m² | - |
| 1778000679 | 25.56° C | 88% | 1001.1 hPa | 0 mm | 2.68 m/s, 213° | 306 W/m² | - |
| 1778000617 | 25.56° C | 88% | 1001.1 hPa | 0 mm | 2.68 m/s, 224° | 297 W/m² | - |
| 1778000556 | 25.56° C | 88% | 1001.1 hPa | 0 mm | 2.68 m/s, 196° | 229 W/m² | - |
| 1778000495 | 25.56° C | 88% | 1001.1 hPa | 0 mm | 2.68 m/s, 203° | 220 W/m² | - |
| 1778000435 | 25.56° C | 88% | 1001.1 hPa | 0 mm | 3.13 m/s, 203° | 220 W/m² | - |
| 1778000373 | 25.56° C | 88% | 1001.1 hPa | 0 mm | 3.13 m/s, 202° | 213 W/m² | - |
| 1778000314 | 25.56° C | 88% | 1001 hPa | 0 mm | 2.68 m/s, 220° | 211 W/m² | - |
| 1778000253 | 25.56° C | 88% | 1001 hPa | 0 mm | 1.79 m/s, 196° | 186 W/m² | - |
| 1778000193 | 25.56° C | 88% | 1001.1 hPa | 0 mm | 1.79 m/s, 193° | 188 W/m² | - |
| 1778000134 | 25.56° C | 88% | 1001 hPa | 0 mm | 2.24 m/s, 199° | 162 W/m² | - |
| 1778000074 | 25.56° C | 88% | 1001 hPa | 0 mm | 2.68 m/s, 192° | 148 W/m² | - |
| 1778000013 | 25.56° C | 88% | 1001 hPa | 0 mm | 2.24 m/s, 203° | 121 W/m² | - |
| 1777999954 | 25.56° C | 88% | 1000.9 hPa | 0 mm | 2.24 m/s, 178° | 98 W/m² | - |
| 1777999894 | 25.56° C | 88% | 1000.9 hPa | 0 mm | 2.68 m/s, 196° | 84 W/m² | - |
* Rain latest hour (hover to see other rain measurements)
** Current wind speed in m/s (hover to see current wind gust speed)